Location: Puketoi
(40.5833°S, 176.0167°E)
Time: 14:12:28
(UTC+00:00)

CZ-2C R/B - Pass Details

Date: 08 February 2023
Orbit: 666 x 783 km, 98.3° (Epoch: 31 March)

Event Time Altitude Azimuth Distance (km) Brightness Sun altitude
Exits shadow 16:22:33 12° 265° (W) 2,017 4.2 -12.7°
Drops below altitude 10° 16:23:54 10° 248° (WSW) 2,140 4.5 -12.5°
Sets 16:27:46 0° 216° (SW) 3,091 5.6 -11.9°
